Portada
METAR-TAF:

METAR-TAF

Aeroports :

NWS Office

Majuro, Illes Marshall

latitud: 07-05N, longitud: 171-12E, altitud: 4 m

Observació

L'informe es va fer fa 28 minuts, a les 22:52 UTC
Vent 5 kt del Sud
Temperatura 28°C
Humitat 84%
Pressió 1012 hPa
Visibilitat: 24.1 km
Núvols disperses a una alçada de 1400 ft, Cumulus congestus.
Cel ennuvolat a una alçada de 4500 ft
Cel ennuvolat a una alçada de 11000 ft
Cel cobert a una alçada de 13000 ft

METAR: PKMR 272252Z 18005KT 15SM SCT014TCU BKN045 BKN110 OVC130 28/25 A2989 RMK SHRAB15E27 TCU NE-E-SE SLP125 T02820246

Hora: 11:20 (23:20 UTC)


TAF: manca

Observacions i pronòstics meteorològics de més de 4000 aeroports (METAR i TAF).

Les estacions disponibles són els punts grocs i vermells al mapa.

Posi el ratolí al punt desitjat per veure el nom de l'estació.

Feu clic per veure les observacions i els pronòstics meteorològics.

Per canviar el mapa: feu clic els botons verds amb una creu de color negre per apropar; al botó verd amb un guió per allunyar la imatge; o en les fletxes verdes per a mapes adjacents.


METAR-TAF: